When you browse on this site, cookies collect data to enhance your experience and personalize the content and advertising you see.
Visit our Privacy Policy to learn more. By continuing to use the site, you agree to this use of cookies and data.
  • In Schweiz
  • Länderverzeichnis
  • Für 7 Tage
  • Wassertemperatur
  • Wetterkarte
  • Widgets
  • user-avatar
    Anmelden

    Stündliche Wetter Ladlou

    Heute, 6 Juni, Samstag

    Zeit Temperatur Niederschläge Wind Luftdruck Luftfeuchtigkeit
    00:00 +18°C° 0 mm 1 m/S 715 mmHg 95%
    01:00 +16°C° 0 mm 1 m/S 715 mmHg 95%
    02:00 +16°C° 0 mm 1 m/S 715 mmHg 96%
    03:00 +16°C° 0 mm 1 m/S 714 mmHg 97%
    04:00 +16°C° 0 mm 1 m/S 714 mmHg 97%
    05:00 +18°C° 0 mm 1 m/S 714 mmHg 96%
    06:00 +19°C° 0 mm 1 m/S 715 mmHg 95%
    07:00 +19°C° 0 mm 2 m/S 715 mmHg 94%
    08:00 +20°C° 0.2 mm 2 m/S 715 mmHg 86%
    09:00 +21°C° 0.2 mm 2 m/S 715 mmHg 79%
    10:00 +23°C° 0.2 mm 2 m/S 715 mmHg 72%
    11:00 +24°C° 0.1 mm 3 m/S 715 mmHg 64%
    12:00 +25°C° 0.1 mm 3 m/S 714 mmHg 56%
    13:00 +26°C° 0.1 mm 4 m/S 714 mmHg 48%
    14:00 +25°C° 0.2 mm 4 m/S 714 mmHg 51%
    15:00 +25°C° 0.2 mm 3 m/S 714 mmHg 54%
    16:00 +24°C° 0.2 mm 3 m/S 714 mmHg 56%
    17:00 +20°C° 0.5 mm 3 m/S 714 mmHg 67%
    18:00 +18°C° 0.5 mm 2 m/S 714 mmHg 79%
    19:00 +15°C° 0.5 mm 2 m/S 714 mmHg 90%
    20:00 +14°C° 0 mm 2 m/S 714 mmHg 91%
    21:00 +13°C° 0 mm 1 m/S 714 mmHg 93%
    22:00 +12°C° 0 mm 1 m/S 714 mmHg 95%
    23:00 +11°C° 0 mm 1 m/S 714 mmHg 96%

    Morgen, 7 Juni, Sonntag

    Zeit Temperatur Niederschläge Wind Luftdruck Luftfeuchtigkeit
    00:00 +10°C° 0 mm 2 m/S 715 mmHg 97%
    01:00 +10°C° 0 mm 2 m/S 715 mmHg 98%
    02:00 +9°C° 0 mm 2 m/S 715 mmHg 98%
    03:00 +8°C° 0 mm 2 m/S 715 mmHg 98%
    04:00 +8°C° 0 mm 2 m/S 715 mmHg 98%
    05:00 +9°C° 0 mm 2 m/S 715 mmHg 92%
    06:00 +10°C° 0 mm 3 m/S 716 mmHg 87%
    07:00 +11°C° 0 mm 3 m/S 716 mmHg 81%
    08:00 +13°C° 0 mm 4 m/S 717 mmHg 74%
    09:00 +14°C° 0 mm 4 m/S 717 mmHg 66%
    10:00 +15°C° 0 mm 4 m/S 717 mmHg 59%
    11:00 +15°C° 0.1 mm 4 m/S 717 mmHg 60%
    12:00 +15°C° 0.1 mm 4 m/S 717 mmHg 61%
    13:00 +17°C° 0.1 mm 4 m/S 718 mmHg 62%
    14:00 +17°C° 0.1 mm 4 m/S 717 mmHg 59%
    15:00 +18°C° 0.1 mm 4 m/S 717 mmHg 57%
    16:00 +18°C° 0.1 mm 4 m/S 717 mmHg 54%
    17:00 +17°C° 0 mm 3 m/S 718 mmHg 61%
    18:00 +14°C° 0 mm 3 m/S 718 mmHg 68%
    19:00 +14°C° 0 mm 2 m/S 718 mmHg 75%
    20:00 +12°C° 0 mm 2 m/S 718 mmHg 79%
    21:00 +11°C° 0 mm 1 m/S 719 mmHg 84%
    22:00 +9°C° 0 mm 1 m/S 719 mmHg 88%
    23:00 +9°C° 0 mm 1 m/S 719 mmHg 89%

    übermorgen, 8 Juni, Montag

    Zeit Temperatur Niederschläge Wind Luftdruck Luftfeuchtigkeit
    00:00 +9°C° 0 mm 1 m/S 719 mmHg 90%
    01:00 +8°C° 0 mm 1 m/S 719 mmHg 91%
    02:00 +8°C° 0 mm 1 m/S 719 mmHg 92%
    03:00 +8°C° 0 mm 1 m/S 719 mmHg 93%
    04:00 +8°C° 0 mm 1 m/S 719 mmHg 94%
    05:00 +10°C° 0 mm 1 m/S 720 mmHg 83%
    06:00 +12°C° 0 mm 2 m/S 720 mmHg 72%
    07:00 +14°C° 0 mm 2 m/S 721 mmHg 61%
    08:00 +14°C° 0 mm 3 m/S 721 mmHg 55%
    09:00 +17°C° 0 mm 3 m/S 721 mmHg 49%
    10:00 +18°C° 0 mm 4 m/S 721 mmHg 43%
    11:00 +19°C° 0 mm 4 m/S 721 mmHg 42%
    12:00 +20°C° 0 mm 4 m/S 721 mmHg 41%
    13:00 +20°C° 0 mm 4 m/S 721 mmHg 40%
    14:00 +20°C° 0 mm 4 m/S 721 mmHg 40%
    15:00 +20°C° 0 mm 3 m/S 721 mmHg 41%
    16:00 +20°C° 0 mm 3 m/S 721 mmHg 42%
    17:00 +19°C° 0 mm 2 m/S 721 mmHg 53%
    18:00 +17°C° 0 mm 2 m/S 721 mmHg 63%
    19:00 +15°C° 0 mm 1 m/S 721 mmHg 74%
    20:00 +13°C° 0 mm 1 m/S 721 mmHg 78%
    21:00 +12°C° 0 mm 1 m/S 721 mmHg 81%
    22:00 +9°C° 0 mm 0 m/S 721 mmHg 85%
    23:00 +9°C° 0 mm 0 m/S 721 mmHg 86%

    9 Juni, Dienstag

    Zeit Temperatur Niederschläge Wind Luftdruck Luftfeuchtigkeit
    00:00 +9°C° 0 mm 0 m/S 721 mmHg 87%
    01:00 +8°C° 0 mm 0 m/S 722 mmHg 88%
    02:00 +8°C° 0 mm 0 m/S 722 mmHg 87%
    03:00 +8°C° 0 mm 0 m/S 722 mmHg 86%
    04:00 +8°C° 0 mm 0 m/S 722 mmHg 86%
    05:00 +10°C° 0 mm 0 m/S 722 mmHg 77%
    06:00 +13°C° 0 mm 0 m/S 723 mmHg 68%
    07:00 +16°C° 0 mm 0 m/S 723 mmHg 60%
    08:00 +18°C° 0 mm 0 m/S 723 mmHg 53%
    09:00 +22°C° 0 mm 1 m/S 723 mmHg 47%
    10:00 +25°C° 0 mm 1 m/S 723 mmHg 40%
    11:00 +26°C° 0 mm 1 m/S 723 mmHg 40%
    12:00 +27°C° 0 mm 1 m/S 723 mmHg 39%
    13:00 +28°C° 0 mm 1 m/S 722 mmHg 39%
    14:00 +27°C° 0 mm 2 m/S 722 mmHg 42%
    15:00 +27°C° 0 mm 2 m/S 722 mmHg 44%
    16:00 +27°C° 0 mm 2 m/S 722 mmHg 46%
    17:00 +25°C° 0 mm 2 m/S 722 mmHg 56%
    18:00 +23°C° 0 mm 1 m/S 721 mmHg 67%
    19:00 +21°C° 0 mm 1 m/S 721 mmHg 77%
    20:00 +20°C° 0 mm 1 m/S 721 mmHg 79%
    21:00 +19°C° 0 mm 1 m/S 721 mmHg 81%
    22:00 +16°C° 0 mm 1 m/S 721 mmHg 82%
    23:00 +16°C° 0 mm 1 m/S 721 mmHg 83%

    10 Juni, Mittwoch

    Zeit Temperatur Niederschläge Wind Luftdruck Luftfeuchtigkeit
    00:00 +16°C° 0 mm 1 m/S 721 mmHg 85%
    01:00 +15°C° 0 mm 1 m/S 721 mmHg 86%
    02:00 +15°C° 0 mm 1 m/S 721 mmHg 88%
    03:00 +15°C° 0 mm 1 m/S 721 mmHg 90%
    04:00 +14°C° 0 mm 1 m/S 721 mmHg 93%
    05:00 +16°C° 0 mm 1 m/S 721 mmHg 86%
    06:00 +18°C° 0 mm 2 m/S 721 mmHg 79%
    07:00 +19°C° 0 mm 2 m/S 721 mmHg 73%
    08:00 +21°C° 0 mm 3 m/S 721 mmHg 63%
    09:00 +23°C° 0 mm 4 m/S 721 mmHg 52%
    10:00 +26°C° 0 mm 4 m/S 721 mmHg 42%
    11:00 +27°C° 0 mm 5 m/S 721 mmHg 40%
    12:00 +28°C° 0 mm 5 m/S 721 mmHg 39%
    13:00 +29°C° 0 mm 5 m/S 721 mmHg 37%
    14:00 +29°C° 0 mm 5 m/S 721 mmHg 39%
    15:00 +28°C° 0 mm 5 m/S 720 mmHg 41%
    16:00 +28°C° 0 mm 5 m/S 720 mmHg 43%
    17:00 +26°C° 0 mm 4 m/S 720 mmHg 52%
    18:00 +23°C° 0 mm 4 m/S 720 mmHg 61%
    19:00 +20°C° 0 mm 3 m/S 720 mmHg 69%
    20:00 +19°C° 0 mm 3 m/S 720 mmHg 72%
    21:00 +18°C° 0 mm 3 m/S 720 mmHg 74%
    22:00 +16°C° 0 mm 3 m/S 719 mmHg 77%
    23:00 +16°C° 0 mm 2 m/S 719 mmHg 81%

    11 Juni, Donnerstag

    Zeit Temperatur Niederschläge Wind Luftdruck Luftfeuchtigkeit
    00:00 +15°C° 0 mm 2 m/S 719 mmHg 85%
    01:00 +15°C° 0 mm 2 m/S 719 mmHg 89%
    02:00 +15°C° 0 mm 2 m/S 719 mmHg 90%
    03:00 +15°C° 0 mm 2 m/S 719 mmHg 91%
    04:00 +15°C° 0 mm 1 m/S 719 mmHg 92%
    05:00 +15°C° 0 mm 2 m/S 720 mmHg 90%
    06:00 +16°C° 0 mm 2 m/S 720 mmHg 88%
    07:00 +17°C° 0 mm 2 m/S 720 mmHg 86%
    08:00 +19°C° 0 mm 2 m/S 721 mmHg 77%
    09:00 +20°C° 0 mm 2 m/S 721 mmHg 68%
    10:00 +23°C° 0 mm 2 m/S 721 mmHg 60%
    11:00 +24°C° 0 mm 2 m/S 721 mmHg 54%
    12:00 +25°C° 0 mm 3 m/S 721 mmHg 48%
    13:00 +26°C° 0 mm 3 m/S 721 mmHg 42%
    14:00 +26°C° 0 mm 3 m/S 721 mmHg 42%
    15:00 +26°C° 0 mm 3 m/S 721 mmHg 43%
    16:00 +26°C° 0 mm 3 m/S 720 mmHg 44%
    17:00 +24°C° 0 mm 3 m/S 720 mmHg 54%
    18:00 +21°C° 0 mm 2 m/S 720 mmHg 65%
    19:00 +19°C° 0 mm 2 m/S 720 mmHg 75%
    20:00 +19°C° 0 mm 1 m/S 720 mmHg 79%
    21:00 +18°C° 0 mm 1 m/S 720 mmHg 84%
    22:00 +16°C° 0 mm 1 m/S 720 mmHg 88%
    23:00 +15°C° 0 mm 1 m/S 720 mmHg 90%
    Mehr zeigen